Regional Weather Roundup
Issued by NWS Newport/Morehead, NC

Current Version | Previous Version | Text Only | Print | Product List | Glossary Off
Versions: 1 2 3 4 5 6 7 8 9 10 11 12 13 14 15 16 17 18 19 20 21 22 23 24 25 26 27 28 29 30 31 32 33 34 35 36 37 38 39 40 41 42 43 44 45 46 47 48 49 50
000 ASUS42 KMHX 080025 RWRMHX WEATHER ROUNDUP FOR EASTERN NORTH CAROLINA NATIONAL WEATHER SERVICE NEWPORT/MOREHEAD CITY NC 700 PM EST SUN FEB 07 2016 NOTE: "FAIR" INDICATES FEW OR NO CLOUDS BELOW 12,000 FEET WITH NO SIGNIFICANT WEATHER AND/OR OBSTRUCTIONS TO VISIBILITY NCZ015>017-031-032-045>047-102-103-080100- NORTH COAST CITY SKY/WX TMP DP RH WIND PRES REMARKS EDENTON RAIN 39 35 85 N18G29 29.75F ELIZABETH CITY LGT RAIN 40 36 86 N24G36 29.73F KITTY HAWK RAIN 43 42 94 N24G35 29.61F MANTEO LGT RAIN 43 43 100 N30G48 29.61F $$ NCZ045>047-081-094-103-104-080100- CENTRAL COAST CITY SKY/WX TMP DP RH WIND PRES REMARKS FRISCO HVY RAIN 45 44 97 N22G38 29.47F FOG SWANQUARTER N/A 39 N/A N/A N26G45 29.59S $$ NCZ095-097-098-100-101-080100- SOUTHERN COAST CITY SKY/WX TMP DP RH WIND PRES REMARKS BEAUFORT LGT SNOW 38 35 89 N29G47 29.56S FOG CEDAR ISLAND N/A 41 N/A N/A NW49G70 29.59S JACKSONVILLE LGT RAIN 37 50 100 N23G38 29.70F PINEY ISLAND NOT AVBL WILMINGTON LGT RAIN 37 32 82 NW22G30 29.73R $$ NCZ011>013-027>030-043-044-078>080-089-090>093-098-080100- COASTAL PLAIN CITY SKY/WX TMP DP RH WIND PRES REMARKS AHOSKIE RAIN 39 27 63 N10G17 29.82S CLINTON LGT RAIN 39 31 73 NW10G17 29.82F ELIZABETHTOWN CLOUDY 39 31 72 NW7 29.81F GOLDSBORO MIX PCPN 41 28 60 NW15G22 29.78S GREENVILLE LGT RAIN 37 32 81 N13G18 29.81F HAVELOCK LGT RAIN 38 33 82 N31G46 29.64S KENANSVILLE LGT RAIN 38 32 78 NW12 29.78F KINSTON MIX PCPN 37 34 87 NW13 29.78F NEW BERN LGT RAIN 37 31 78 N26G37 29.70S RICHLANDS CLOUDY 36 28 75 NW12G23 29.74R ROCKY MOUNT CLOUDY 42 24 49 N15G25 29.83S WASHINGTON RAIN 35 31 84 N16G25 29.74F WHITEVILLE CLOUDY 40 30 68 CALM 29.81S $$ AMZ130-135-150-152-154-156-158-170-250-252-270-ANZ085-086-088-633-658-670-080100- MARINE OBSERVATIONS STATION/POSITION TIME TEMP WIND PRES WAVE SWELL AIR SEA DIR/SP/G HT/PER HT/PER (UTC) (F) (DEG/KT/KT) (MB) (FT/S) (FT/S) CHESAPEAKE LIGHT 0000 43 20/ 34/ 38 1007.2 64 E VA BEACH 2350 51 54 30/ 37/ 45 1002.1 15/ 9 10/ 9 DUCK 0000 43 50 360/ 36/ 44 1002.3 2 E DUCK 2311 45 N/A 13/ 8 2/11 OREGON INLET 0000 45 45 350/ 30/ 38 1000.3 13E OREGON INLT 0000 47 N/A 16/11 7/11 HATTERAS CG 0000 45 47 350/ 44/ 56 997.1 DIAMOND BUOY 2350 53 71 360/ 43/ 54 993.0 18/10 CAPE LOOKOUT NOT AVBL BEAUFORT LAB 0000 38 47 350/ 32/ 45 999.9 30 SE NEW RVR IN 0008 40 61 997.5 30 SE NEW RVR IN 2325 61 N/A 19/ 8 7/11 27 SE WRIGHTSVLE 0008 42 360/ 41 997.9 5 SE WRIGHTSVLE 2308 40 52 350/ 35/ 45 1003.6 225 S CAPE HAT 2350 59 69 270/ 33/ 43 N/A 14/ 8 41 SE CHARLESTON 2350 49 66 320/ 31/ 37 1008.7 11/ 9 2/19 $$

USA.gov is the U.S. government's official web portal to all federal, state and local government web resources and services.